{"data":{"norad_id":62646,"intl_designator":"2025-009AP","name":"FLOCK 4G-25","alt_names":[],"object_type":"PAYLOAD","status":"ACTIVE","operator":null,"country":"US","launch_date":"2025-01-14","launch_site_code":"AFWTR","launch_vehicle":null,"mission":null,"orbit_class":"UNKNOWN","rcs_meters":null,"size_class":null,"mass_kg":null,"dimensions":null,"purposes":["earth_obs"],"wikipedia_slug":null,"has_3d_model":false,"image_url":null,"decayed_at":null,"tle_current":{"epoch":"2026-05-25T03:46:40.613664Z","epoch_age_seconds":58687,"freshness":"FRESH","line1":"1 62646U 25009AP  26145.15741451  .00009989  00000+0  35808-3 0  9997","line2":"2 62646  97.4010 227.3503 0002769  66.2324 293.9206 15.28919596 75408","mean_motion":15.28919596,"eccentricity":0.0002769,"inclination_deg":97.401,"raan_deg":227.3503,"arg_perigee_deg":66.2324,"mean_anomaly_deg":293.9206,"bstar":0.00035808,"rev_number":7540,"period_min":94.184154861208,"perigee_km":477.14204022628,"apogee_km":480.93954528791,"semimajor_km":6857.1777927571,"source":"CELESTRAK","updated_at":"2026-05-25T13:38:13.339518Z"}}}